VCP115 PAVD-PANC

Flight info

Callsign VCP115
Flight time N/A
Altitude 8000
Route JMAAL4 NAKED YESKA YESKA6
Aircraft PA24/L-SDGRY/S

Departure

Time 2026-04-23 21:07
Airport Valdez Pioneer Field (PAVD)

Arrival

Time N/A
Airport Ted Stevens Anchorage International Airport (PANC)
Time Latitude Longitude Altitude Speed Heading
2026-04-23 20:53 61.13178 -146.24594 81 ft 0 kts 352°
2026-04-23 21:03 61.13205 -146.24614 81 ft 9 kts 311°
2026-04-23 21:03 61.13204 -146.24712 80 ft 9 kts 258°
2026-04-23 21:04 61.13188 -146.24883 74 ft 15 kts 259°
2026-04-23 21:04 61.13168 -146.25095 185 ft 14 kts 260°
2026-04-23 21:04 61.13150 -146.25303 215 ft 6 kts 259°
2026-04-23 21:04 61.13143 -146.25373 214 ft 10 kts 258°
2026-04-23 21:05 61.13128 -146.25534 214 ft 12 kts 264°
2026-04-23 21:05 61.13117 -146.25710 210 ft 8 kts 261°
2026-04-23 21:05 61.13119 -146.25843 207 ft 12 kts 276°
2026-04-23 21:05 61.13127 -146.26062 203 ft 17 kts 274°
2026-04-23 21:06 61.13173 -146.26235 198 ft 12 kts 343°
2026-04-23 21:06 61.13259 -146.26260 201 ft 10 kts 351°
2026-04-23 21:06 61.13299 -146.26159 204 ft 27 kts 80°
2026-04-23 21:06 61.13369 -146.25313 272 ft 75 kts 74°
2026-04-23 21:07 61.13480 -146.24314 364 ft 70 kts 72°
2026-04-23 21:07 61.13602 -146.23356 580 ft 74 kts 68°
2026-04-23 21:07 61.13821 -146.22501 805 ft 73 kts 43°
2026-04-23 21:07 61.13989 -146.21534 1052 ft 74 kts 72°
2026-04-23 21:08 61.14156 -146.20528 1371 ft 74 kts 77°
2026-04-23 21:08 61.14129 -146.19443 1589 ft 77 kts 101°
2026-04-23 21:08 61.13983 -146.18468 1892 ft 67 kts 116°
2026-04-23 21:08 61.13662 -146.17750 2138 ft 66 kts 150°
2026-04-23 21:09 61.13201 -146.17599 2346 ft 72 kts 185°
2026-04-23 21:09 61.12786 -146.18101 2550 ft 71 kts 224°
2026-04-23 21:09 61.12602 -146.19097 2711 ft 77 kts 262°
2026-04-23 21:09 61.12562 -146.20169 2903 ft 76 kts 253°
2026-04-23 21:10 61.12345 -146.21183 3096 ft 73 kts 248°
2026-04-23 21:10 61.12245 -146.22212 3504 ft 75 kts 254°
2026-04-23 21:10 61.12209 -146.23246 3739 ft 72 kts 270°
2026-04-23 21:10 61.12258 -146.24319 3939 ft 76 kts 269°
2026-04-23 21:11 61.12308 -146.25413 4078 ft 77 kts 267°
2026-04-23 21:11 61.12348 -146.26535 4295 ft 78 kts 262°
2026-04-23 21:11 61.12369 -146.27655 4494 ft 81 kts 262°
2026-04-23 21:11 61.12390 -146.28813 4725 ft 80 kts 259°
2026-04-23 21:12 61.12401 -146.29990 4929 ft 82 kts 259°
2026-04-23 21:12 61.12408 -146.31182 5140 ft 84 kts 258°
2026-04-23 21:12 61.12415 -146.32395 5327 ft 83 kts 258°
2026-04-23 21:12 61.12421 -146.33594 5502 ft 85 kts 258°
2026-04-23 21:13 61.12429 -146.34816 5693 ft 84 kts 256°
2026-04-23 21:13 61.12338 -146.36004 5862 ft 82 kts 240°
2026-04-23 21:13 61.12198 -146.37116 6034 ft 80 kts 238°
2026-04-23 21:13 61.12053 -146.38251 6187 ft 80 kts 238°
2026-04-23 21:14 61.11909 -146.39360 6312 ft 82 kts 236°
2026-04-23 21:14 61.11772 -146.40454 6483 ft 76 kts 233°
2026-04-23 21:14 61.11626 -146.41544 6566 ft 80 kts 235°
2026-04-23 21:14 61.11490 -146.42627 6696 ft 79 kts 233°
2026-04-23 21:15 61.11395 -146.43363 6752 ft 80 kts 234°
2026-04-23 21:15 61.11258 -146.44449 6863 ft 78 kts 232°
2026-04-23 21:15 61.11132 -146.45446 7024 ft 66 kts 225°
2026-04-23 21:15 61.10995 -146.46444 7028 ft 73 kts 233°
2026-04-23 21:16 61.10873 -146.47336 7123 ft 66 kts 225°
2026-04-23 21:16 61.10769 -146.48233 7227 ft 56 kts 219°
2026-04-23 21:16 61.10644 -146.49167 7186 ft 67 kts 236°
2026-04-23 21:16 61.10505 -146.50047 7130 ft 89 kts 238°
2026-04-23 21:17 61.10440 -146.51188 7524 ft 65 kts 231°
2026-04-23 21:17 61.10260 -146.52516 7198 ft 112 kts 245°
2026-04-23 21:17 61.10130 -146.53647 7730 ft 73 kts 221°
2026-04-23 21:17 61.09867 -146.54717 7718 ft 86 kts 232°
2026-04-23 21:18 61.09609 -146.55825 7856 ft 86 kts 225°
2026-04-23 21:18 61.09356 -146.56920 7932 ft 88 kts 242°
2026-04-23 21:18 61.09375 -146.58312 8041 ft 101 kts 248°
2026-04-23 21:18 61.09259 -146.59657 8205 ft 91 kts 240°
2026-04-23 21:19 61.09114 -146.60942 8298 ft 92 kts 239°
2026-04-23 21:19 61.08967 -146.62206 8415 ft 90 kts 239°
2026-04-23 21:19 61.08802 -146.63483 8450 ft 96 kts 239°
2026-04-23 21:19 61.08622 -146.64867 8445 ft 104 kts 240°
2026-04-23 21:20 61.08438 -146.66359 8449 ft 110 kts 243°
2026-04-23 21:20 61.08255 -146.67913 8454 ft 115 kts 242°
2026-04-23 21:20 61.08036 -146.69528 8462 ft 119 kts 242°
2026-04-23 21:20 61.07807 -146.71204 8472 ft 124 kts 242°
2026-04-23 21:21 61.07592 -146.72972 8498 ft 135 kts 238°
2026-04-23 21:21 61.07361 -146.74742 8524 ft 126 kts 238°
2026-04-23 21:21 61.07151 -146.76378 8529 ft 110 kts 249°
2026-04-23 21:21 61.06951 -146.77980 8530 ft 118 kts 240°
2026-04-23 21:22 61.06729 -146.79612 8530 ft 118 kts 241°
2026-04-23 21:22 61.06511 -146.81244 8524 ft 118 kts 243°
2026-04-23 21:22 61.06301 -146.82897 8518 ft 119 kts 242°
2026-04-23 21:22 61.06071 -146.84523 8511 ft 116 kts 239°
2026-04-23 21:23 61.05875 -146.86136 8501 ft 117 kts 243°
2026-04-23 21:23 61.05455 -146.87532 8509 ft 111 kts 211°
2026-04-23 21:23 61.04795 -146.88109 8512 ft 103 kts 182°
2026-04-23 21:23 61.04094 -146.87900 8509 ft 102 kts 169°
2026-04-23 21:24 61.03410 -146.87566 8516 ft 96 kts 170°
2026-04-23 21:24 61.02769 -146.87263 8490 ft 96 kts 167°
2026-04-23 21:24 61.02109 -146.86944 8463 ft 97 kts 168°
2026-04-23 21:24 61.01470 -146.86619 8449 ft 95 kts 168°
2026-04-23 21:25 61.00828 -146.86271 8444 ft 94 kts 171°
2026-04-23 21:25 61.00179 -146.85949 8455 ft 100 kts 168°
2026-04-23 21:25 60.99475 -146.85568 8476 ft 109 kts 171°
2026-04-23 21:25 60.98725 -146.85223 8506 ft 111 kts 171°
2026-04-23 21:26 60.97969 -146.84858 8534 ft 112 kts 169°
2026-04-23 21:26 60.97208 -146.84462 8562 ft 113 kts 169°
2026-04-23 21:26 60.96455 -146.84082 8594 ft 113 kts 171°
2026-04-23 21:26 60.95688 -146.83692 8629 ft 113 kts 169°
2026-04-23 21:27 60.94922 -146.83308 8661 ft 114 kts 172°
2026-04-23 21:27 60.94154 -146.82914 8697 ft 113 kts 169°
2026-04-23 21:27 60.93396 -146.82514 8727 ft 113 kts 169°
2026-04-23 21:27 60.92624 -146.82131 8757 ft 112 kts 170°
2026-04-23 21:28 60.91876 -146.81741 8791 ft 113 kts 171°
2026-04-23 21:28 60.91117 -146.81385 8814 ft 111 kts 169°
2026-04-23 21:28 60.90370 -146.80978 8838 ft 111 kts 169°
2026-04-23 21:28 60.89625 -146.80601 8859 ft 110 kts 171°
2026-04-23 21:29 60.88881 -146.80699 8898 ft 109 kts 203°
2026-04-23 21:29 60.88333 -146.81751 8931 ft 112 kts 235°
2026-04-23 21:29 60.88099 -146.83348 8951 ft 119 kts 240°
2026-04-23 21:29 60.87853 -146.84996 8900 ft 125 kts 240°
2026-04-23 21:30 60.87558 -146.86741 8793 ft 131 kts 240°
2026-04-23 21:30 60.87263 -146.88523 8712 ft 133 kts 242°
2026-04-23 21:30 60.86930 -146.90302 8660 ft 133 kts 239°
2026-04-23 21:30 60.86592 -146.92045 8607 ft 133 kts 238°
2026-04-23 21:31 60.86237 -146.93781 8554 ft 131 kts 237°
2026-04-23 21:31 60.85861 -146.95484 8504 ft 130 kts 236°
2026-04-23 21:31 60.85478 -146.97153 8475 ft 127 kts 234°
2026-04-23 21:31 60.85086 -146.98757 8453 ft 125 kts 234°
2026-04-23 21:32 60.84683 -147.00330 8426 ft 123 kts 231°
2026-04-23 21:32 60.84267 -147.01832 8419 ft 119 kts 231°
2026-04-23 21:32 60.83854 -147.03282 8418 ft 116 kts 230°
2026-04-23 21:32 60.83440 -147.04685 8420 ft 114 kts 227°
2026-04-23 21:33 60.83020 -147.06012 8420 ft 111 kts 228°
2026-04-23 21:33 60.82599 -147.07323 8421 ft 109 kts 226°
2026-04-23 21:33 60.82174 -147.08586 8422 ft 106 kts 226°
2026-04-23 21:33 60.81744 -147.09805 8419 ft 104 kts 224°
2026-04-23 21:34 60.81313 -147.10993 8415 ft 103 kts 223°
2026-04-23 21:34 60.80879 -147.12141 8414 ft 101 kts 222°
2026-04-23 21:34 60.80445 -147.13250 8385 ft 99 kts 221°
2026-04-23 21:34 60.80008 -147.14316 8381 ft 96 kts 219°
2026-04-23 21:35 60.79593 -147.15346 8379 ft 94 kts 217°
2026-04-23 21:35 60.79164 -147.16330 8374 ft 91 kts 218°
2026-04-23 21:35 60.78741 -147.17275 8369 ft 89 kts 217°
2026-04-23 21:35 60.78328 -147.18186 8368 ft 85 kts 216°
2026-04-23 21:36 60.77529 -147.19837 8337 ft 79 kts 214°
2026-04-23 21:36 60.77142 -147.20611 8312 ft 77 kts 213°
2026-04-23 21:36 60.76764 -147.21351 8275 ft 74 kts 212°
2026-04-23 21:37 60.76388 -147.22074 8209 ft 76 kts 212°
2026-04-23 21:37 60.75999 -147.22794 8153 ft 75 kts 211°
2026-04-23 21:37 60.75605 -147.23510 8081 ft 76 kts 211°
2026-04-23 21:37 60.75207 -147.24215 8011 ft 76 kts 210°
2026-04-23 21:38 60.74801 -147.24915 7928 ft 76 kts 209°
2026-04-23 21:38 60.74388 -147.25602 7845 ft 77 kts 208°
2026-04-23 21:38 60.73970 -147.26290 7756 ft 77 kts 209°
2026-04-23 21:38 60.73548 -147.26961 7667 ft 77 kts 207°
2026-04-23 21:39 60.73126 -147.27616 7574 ft 77 kts 207°
2026-04-23 21:39 60.72693 -147.28265 7472 ft 77 kts 206°
2026-04-23 21:39 60.72255 -147.28908 7372 ft 77 kts 205°
2026-04-23 21:39 60.71811 -147.29540 7266 ft 78 kts 205°
2026-04-23 21:40 60.71358 -147.30160 7158 ft 78 kts 204°
2026-04-23 21:40 60.70911 -147.30773 7022 ft 78 kts 203°
2026-04-23 21:40 60.70450 -147.31368 6910 ft 79 kts 202°
2026-04-23 21:40 60.69984 -147.31960 6795 ft 79 kts 201°
2026-04-23 21:41 60.69512 -147.32535 6664 ft 79 kts 200°
2026-04-23 21:41 60.69042 -147.33109 6520 ft 79 kts 199°
2026-04-23 21:41 60.68565 -147.33658 6380 ft 79 kts 197°
2026-04-23 21:41 60.68087 -147.34200 6250 ft 78 kts 196°
2026-04-23 21:42 60.67606 -147.34725 6118 ft 79 kts 195°
2026-04-23 21:42 60.67124 -147.35229 5997 ft 77 kts 193°
2026-04-23 21:42 60.66648 -147.35722 5877 ft 75 kts 190°
2026-04-23 21:42 60.66191 -147.36169 5749 ft 69 kts 190°
2026-04-23 21:43 60.65720 -147.36595 5628 ft 78 kts 192°
2026-04-23 21:43 60.65220 -147.37065 5513 ft 80 kts 193°
2026-04-23 21:43 60.64689 -147.37501 5363 ft 85 kts 195°
2026-04-23 21:43 60.64154 -147.37970 5225 ft 81 kts 194°
2026-04-23 21:44 60.63631 -147.38430 5097 ft 82 kts 188°
2026-04-23 21:44 60.63108 -147.38934 4909 ft 88 kts 210°
2026-04-23 21:44 60.62820 -147.40106 4679 ft 102 kts 249°
2026-04-23 21:44 60.62962 -147.41605 4475 ft 115 kts 282°
2026-04-23 21:45 60.63300 -147.43069 4402 ft 113 kts 289°
2026-04-23 21:45 60.63658 -147.44550 4316 ft 117 kts 292°
2026-04-23 21:45 60.64012 -147.46044 4282 ft 117 kts 286°
2026-04-23 21:45 60.64324 -147.47546 4255 ft 114 kts 287°
2026-04-23 21:46 60.64652 -147.49099 4238 ft 122 kts 288°
2026-04-23 21:46 60.64990 -147.50681 4221 ft 120 kts 287°
2026-04-23 21:46 60.65304 -147.52247 4200 ft 120 kts 284°
2026-04-23 21:46 60.65609 -147.53821 4179 ft 118 kts 284°
2026-04-23 21:47 60.65912 -147.55375 4155 ft 118 kts 284°
2026-04-23 21:47 60.66224 -147.56894 4138 ft 116 kts 283°
2026-04-23 21:47 60.66534 -147.58442 4118 ft 118 kts 285°
2026-04-23 21:47 60.66846 -147.59977 4099 ft 116 kts 283°
2026-04-23 21:48 60.67136 -147.61531 4088 ft 116 kts 282°
2026-04-23 21:48 60.67445 -147.63054 4075 ft 117 kts 287°
2026-04-23 21:48 60.67770 -147.64568 4065 ft 117 kts 284°
2026-04-23 21:48 60.68059 -147.66119 4048 ft 117 kts 283°
2026-04-23 21:49 60.68363 -147.67662 4031 ft 117 kts 284°
2026-04-23 21:49 60.68662 -147.69214 4020 ft 117 kts 285°
2026-04-23 21:49 60.68969 -147.70748 3992 ft 119 kts 287°
2026-04-23 21:49 60.69274 -147.72333 3974 ft 121 kts 291°
2026-04-23 21:50 60.69598 -147.73922 3962 ft 122 kts 292°
2026-04-23 21:50 60.69921 -147.75506 3941 ft 123 kts 292°
2026-04-23 21:50 60.70248 -147.77116 3928 ft 123 kts 292°
2026-04-23 21:50 60.70571 -147.78746 3890 ft 124 kts 292°
2026-04-23 21:51 60.70898 -147.80382 3884 ft 125 kts 292°
2026-04-23 21:51 60.71225 -147.82030 3880 ft 126 kts 291°
2026-04-23 21:51 60.71551 -147.83689 3878 ft 126 kts 291°
2026-04-23 21:51 60.71885 -147.85361 3878 ft 127 kts 291°
2026-04-23 21:52 60.72217 -147.87037 3881 ft 127 kts 291°
2026-04-23 21:52 60.72543 -147.88719 3885 ft 128 kts 291°
2026-04-23 21:52 60.72877 -147.90414 3893 ft 131 kts 290°
2026-04-23 21:52 60.73211 -147.92103 3907 ft 127 kts 289°
2026-04-23 21:53 60.73530 -147.93745 3910 ft 124 kts 290°
2026-04-23 21:53 60.73845 -147.95429 3922 ft 130 kts 292°
2026-04-23 21:53 60.74198 -147.97162 3937 ft 131 kts 293°
2026-04-23 21:53 60.74539 -147.98858 3957 ft 130 kts 291°
2026-04-23 21:54 60.74881 -148.00591 3992 ft 133 kts 293°
2026-04-23 21:54 60.75227 -148.02377 4011 ft 136 kts 290°
2026-04-23 21:54 60.75570 -148.04192 4042 ft 138 kts 292°
2026-04-23 21:54 60.75942 -148.06008 4076 ft 138 kts 292°
2026-04-23 21:55 60.76291 -148.07842 4109 ft 138 kts 291°
2026-04-23 21:55 60.76658 -148.09650 4137 ft 137 kts 291°
2026-04-23 21:55 60.77002 -148.11433 4160 ft 136 kts 290°
2026-04-23 21:55 60.77331 -148.13228 4179 ft 133 kts 289°
2026-04-23 21:56 60.77674 -148.14982 4194 ft 132 kts 292°
2026-04-23 21:56 60.78022 -148.16713 4204 ft 131 kts 291°
2026-04-23 21:56 60.78356 -148.18444 4209 ft 130 kts 290°
2026-04-23 21:56 60.78680 -148.20165 4211 ft 129 kts 292°
2026-04-23 21:57 60.79003 -148.21864 4211 ft 128 kts 289°
2026-04-23 21:57 60.79335 -148.23515 4208 ft 126 kts 292°
2026-04-23 21:57 60.79657 -148.25173 4202 ft 125 kts 287°
2026-04-23 21:57 60.79967 -148.26826 4191 ft 123 kts 291°
2026-04-23 21:58 60.80286 -148.28452 4173 ft 122 kts 290°
2026-04-23 21:58 60.80601 -148.30050 4170 ft 119 kts 290°
2026-04-23 21:58 60.80886 -148.31595 4197 ft 111 kts 289°
2026-04-23 21:58 60.81163 -148.33054 4128 ft 106 kts 289°
2026-04-23 21:59 60.81437 -148.34499 4103 ft 111 kts 291°
2026-04-23 21:59 60.81716 -148.35971 4053 ft 108 kts 295°
2026-04-23 21:59 60.82006 -148.37358 3991 ft 105 kts 293°
2026-04-23 22:00 60.82547 -148.40192 3833 ft 111 kts 294°
2026-04-23 22:00 60.82802 -148.41550 3827 ft 100 kts 291°
2026-04-23 22:00 60.83073 -148.42984 3754 ft 108 kts 294°
2026-04-23 22:00 60.83347 -148.44401 3685 ft 107 kts 294°
2026-04-23 22:01 60.83616 -148.45819 3650 ft 103 kts 289°
2026-04-23 22:01 60.83652 -148.47266 3527 ft 103 kts 255°
2026-04-23 22:01 60.83371 -148.48540 3513 ft 98 kts 231°
2026-04-23 22:01 60.83058 -148.49848 3452 ft 101 kts 233°
2026-04-23 22:02 60.82749 -148.51166 3398 ft 102 kts 232°
2026-04-23 22:02 60.82459 -148.52503 3372 ft 105 kts 235°
2026-04-23 22:02 60.82259 -148.53391 3371 ft 99 kts 235°
2026-04-23 22:02 60.81955 -148.54619 3354 ft 95 kts 234°
2026-04-23 22:03 60.81650 -148.55892 3330 ft 103 kts 234°
2026-04-23 22:03 60.81355 -148.57161 3308 ft 99 kts 233°
2026-04-23 22:03 60.81063 -148.58388 3288 ft 95 kts 234°
2026-04-23 22:03 60.80752 -148.59556 3273 ft 93 kts 233°
2026-04-23 22:04 60.80447 -148.60730 3257 ft 96 kts 234°
2026-04-23 22:04 60.80141 -148.61973 3222 ft 101 kts 234°
2026-04-23 22:04 60.79824 -148.63256 3175 ft 97 kts 234°
2026-04-23 22:04 60.79514 -148.64456 3123 ft 94 kts 236°
2026-04-23 22:05 60.79204 -148.65722 3098 ft 102 kts 233°
2026-04-23 22:05 60.78877 -148.66997 3070 ft 99 kts 233°
2026-04-23 22:05 60.78562 -148.68172 3070 ft 94 kts 233°
2026-04-23 22:05 60.78250 -148.69373 3036 ft 91 kts 233°